Weather in Sinuiju

North Korea     40°06′25″N   124°24′02″E
temp.,
°C
wind,
m/s
gust,
m/s
humid.,
%
clouds,
%
prec.,
mm/h
press.,
hPa
HPBL,
m
21 april, wed
wed2100:00+11ssw22700 0.0 102240
03:00+10s117417 0.0 102211
06:00+9se11725 0.0 102211
09:00+15ese125175 0.0 1023305
12:00+21s4433100 0.0 1022800
15:00+21ssw4428100 0.0 1020654
18:00+18sw4435100 0.0 1020309
21:00+14sw2346100 0.0 102192
22 april, thu
thu2200:00+12sw3755100 0.0 1023311
03:00+13ene2346100 0.0 102172
06:00+13e1139100 0.0 102114
09:00+18ese283199 0.0 1020466
12:00+22s7924100 0.0 10181859
15:00+20sw4628100 0.0 1018716
18:00+18n3540100 0.0 1017180
21:00+13wnw3763100 0.0 1020270
23 april, fri
fri2300:00+13ene2368100 0.3 1021124
03:00+13ese3879100 1.5 1020535
06:00+13e31082100 1.3 1020622
09:00+13e51174100 2.3 1021783
12:00+16ese6955100 0.1 10211048
15:00+15e4864100 0.2 1021689
18:00+14ene3769100 0.0 1022775
21:00+13ene2570100 0.1 1023199
24 april, sat
sat2400:00+12n2283100 0.1 102477
03:00+12n2483100 0.1 1024105
06:00+12n248294 0.0 102392
09:00+16n57625 0.0 1024709
12:00+20nne684418 0.0 10221774
15:00+21nne783974 0.0 10202248
18:00+19n684817 0.0 10191416
21:00+15nne812600 0.0 1022795
25 april, sun
sun2500:00+13n916485 0.0 1022777
03:00+11n71538100 0.0 1021540
06:00+9nne61237100 0.0 1022369
09:00+13nne44345 0.0 1022380
12:00+18n22365 0.0 10221151
15:00+20wsw2133100 0.0 10201562
18:00+18sw3346100 0.0 1020426
21:00+15wsw2262100 0.0 102133